Boonton, New Jersey, United States (07005)
Lat: 40.90N, Lon: 74.41W
Wx Zone: NJZ008
Local Info
Past Weather Observations for Sunday, August 23, 2015

NOTE: This archive is for the closest National Weather Service station to Boonton. Information may differ from the station used for current weather conditions.

Click here for Long-term Archive

Time Weather Temperature Dewpoint Humidity Pressure Winds Precip Visibility
23:53
Mostly Cloudy
70°F / 21°C 64°F / 18°C 83% 29.95 in
(1014 mb)
Calm - 10SM
23:41
Mostly Cloudy
70°F / 21°C 64°F / 18°C 83% 29.95 in
(1014 mb)
Calm - 10SM
22:53
Clear
70°F / 21°C 64°F / 18°C 83% 29.95 in
(1014 mb)
Calm - 10SM
21:53
Partly Cloudy
73°F / 23°C 64°F / 18°C 74% 29.95 in
(1014 mb)
Calm - 10SM
18:53
Clear
79°F / 26°C 63°F / 17°C 58% 29.95 in
(1014 mb)
SE 3.5 mph
(SE 6 kph)
- 10SM
17:53
Clear
81°F / 27°C 63°F / 17°C 54% 29.92 in
(1013 mb)
SSE 6.9 mph
(SSE 11 kph)
- 10SM
16:53
Clear
82°F / 28°C 63°F / 17°C 51% 29.92 in
(1013 mb)
SE 5.8 mph
(SE 9 kph)
- 10SM
15:53
Mostly Cloudy
82°F / 28°C 61°F / 16°C 48% 29.95 in
(1014 mb)
SSE 5.8 mph
(SSE 9 kph)
- 10SM
14:53
Mostly Cloudy
82°F / 28°C 61°F / 16°C 48% 29.95 in
(1014 mb)
SE 5.8 mph
(SE 9 kph)
- 10SM
13:53
Partly Cloudy
82°F / 28°C 63°F / 17°C 51% 29.95 in
(1014 mb)
SW 3.5 mph
(SW 6 kph)
- 10SM
12:53
Mostly Cloudy
81°F / 27°C 63°F / 17°C 54% 29.98 in
(1015 mb)
E 4.6 mph
(E 7 kph)
- 10SM
11:53
Partly Cloudy
82°F / 28°C 63°F / 17°C 51% 29.98 in
(1015 mb)
E 9.2 mph
(E 15 kph)
- 10SM
09:53
Partly Cloudy
79°F / 26°C 63°F / 17°C 58% 30.04 in
(1017 mb)
NE 6.9 mph
(NE 11 kph)
- 10SM
08:53
Clear
75°F / 24°C 63°F / 17°C 65% 30.04 in
(1017 mb)
ENE 8.1 mph
(ENE 13 kph)
- 10SM
07:53
Clear
72°F / 22°C 63°F / 17°C 73% 30.04 in
(1017 mb)
Calm - 10SM
07:02
Partly Cloudy
66°F / 19°C 61°F / 16°C 83% 30.06 in
(1018 mb)
NE 4.6 mph
(NE 7 kph)
- 10SM
06:53
Mostly Cloudy
66°F / 19°C 61°F / 16°C 83% 30.06 in
(1018 mb)
NE 3.5 mph
(NE 6 kph)
- 10SM
06:08
Mostly Cloudy
63°F / 17°C 57°F / 14°C 83% 30.06 in
(1018 mb)
Calm - 10SM
05:53
Partly Cloudy
63°F / 17°C 57°F / 14°C 83% 30.06 in
(1018 mb)
Calm - 10SM
04:53
Partly Cloudy
63°F / 17°C 57°F / 14°C 83% 30.04 in
(1017 mb)
Calm - 10SM
03:53
Partly Cloudy
63°F / 17°C 57°F / 14°C 83% 30.04 in
(1017 mb)
Calm - 10SM
02:53
Clear
63°F / 17°C 57°F / 14°C 83% 30.04 in
(1017 mb)
Calm - 10SM
01:53
Partly Cloudy
63°F / 17°C 57°F / 14°C 83% 30.04 in
(1017 mb)
Calm - 10SM
00:53
Clear
63°F / 17°C 57°F / 14°C 83% 30.06 in
(1018 mb)
Calm - 10SM
Time Weather Temperature Dewpoint Humidity Pressure Winds Precip Visibility


Weather for websites

WeatherForYou.com, LLC is not responsible for any damages or problems caused by this service. Current weather conditions are obtained from the closest station including government and personal stations which may have varying degrees of accuracy. Weather forecasts are derived from the NOAA NDFD. Like all things, this site belongs to Jesus Christ... He just trusts us to maintain it. If you have any questions or comments email webmaster@weatherforyou.com

Copyright © 2015, WeatherForYou.com LLC. All rights reserved.